EJU7695 LPPT-GVAC

Flight info

Callsign EJU7695
Flight time 4h 3m
Altitude 37000
Route ULVOT DCT BEXAL UN866 KONBA DCT GURKA DCT BRICK DCT GOMER/N0449F380 N866 TENPA DCT PINPO PINPO1F
Aircraft A20N/M-SDE2E3FGHIJ1RWXYZ/LB1G1

Departure

Time 2026-04-15 12:51
Airport Lisbon Humberto Delgado Airport (LPPT)

Arrival

Time 2026-04-15 16:54
Airport Amílcar Cabral International Airport (GVAC)
Time Latitude Longitude Altitude Speed Heading
2026-04-15 12:10 38.77429 -9.13138 321 ft 0 kts 78°
2026-04-15 12:37 38.77427 -9.13148 321 ft 2 kts 78°
2026-04-15 12:37 38.77423 -9.13168 321 ft 2 kts 78°
2026-04-15 12:38 38.77420 -9.13186 321 ft 2 kts 78°
2026-04-15 12:38 38.77417 -9.13205 321 ft 2 kts 78°
2026-04-15 12:38 38.77414 -9.13223 322 ft 2 kts 78°
2026-04-15 12:38 38.77413 -9.13242 322 ft 2 kts 102°
2026-04-15 12:39 38.77418 -9.13260 322 ft 2 kts 122°
2026-04-15 12:39 38.77427 -9.13274 323 ft 2 kts 144°
2026-04-15 12:39 38.77439 -9.13282 323 ft 0 kts 165°
2026-04-15 12:39 38.77446 -9.13284 323 ft 1 kts 170°
2026-04-15 12:40 38.77447 -9.13284 323 ft 0 kts 169°
2026-04-15 12:42 38.77437 -9.13282 323 ft 3 kts 169°
2026-04-15 12:42 38.77404 -9.13274 322 ft 6 kts 168°
2026-04-15 12:42 38.77351 -9.13272 320 ft 9 kts 207°
2026-04-15 12:43 38.77321 -9.13352 320 ft 10 kts 258°
2026-04-15 12:43 38.77308 -9.13434 321 ft 8 kts 258°
2026-04-15 12:43 38.77299 -9.13487 324 ft 3 kts 258°
2026-04-15 12:43 38.77294 -9.13512 325 ft 2 kts 257°
2026-04-15 12:44 38.77292 -9.13527 326 ft 1 kts 258°
2026-04-15 12:44 38.77291 -9.13533 326 ft 0 kts 258°
2026-04-15 12:46 38.77291 -9.13532 326 ft 1 kts 258°
2026-04-15 12:46 38.77290 -9.13539 326 ft 2 kts 258°
2026-04-15 12:46 38.77284 -9.13578 329 ft 6 kts 258°
2026-04-15 12:47 38.77273 -9.13641 336 ft 7 kts 258°
2026-04-15 12:47 38.77261 -9.13711 342 ft 9 kts 258°
2026-04-15 12:47 38.77247 -9.13803 346 ft 12 kts 258°
2026-04-15 12:47 38.77170 -9.13877 347 ft 16 kts 202°
2026-04-15 12:48 38.77058 -9.13936 346 ft 18 kts 202°
2026-04-15 12:48 38.76933 -9.14001 340 ft 20 kts 204°
2026-04-15 12:48 38.76804 -9.14072 336 ft 19 kts 202°
2026-04-15 12:48 38.76680 -9.14137 335 ft 17 kts 202°
2026-04-15 12:49 38.76598 -9.14196 336 ft 10 kts 233°
2026-04-15 12:49 38.76606 -9.14278 336 ft 10 kts 293°
2026-04-15 12:49 38.76645 -9.14357 336 ft 11 kts 327°
2026-04-15 12:49 38.76697 -9.14358 336 ft 0 kts 18°
2026-04-15 12:50 38.76731 -9.14343 335 ft 29 kts 22°
2026-04-15 12:50 38.77177 -9.14104 348 ft 104 kts 22°
2026-04-15 12:50 38.78041 -9.13637 361 ft 164 kts 22°
2026-04-15 12:50 38.79129 -9.13043 871 ft 174 kts 24°
2026-04-15 12:51 38.80201 -9.12338 1557 ft 179 kts 28°
2026-04-15 12:51 38.81263 -9.11521 2272 ft 182 kts 30°
2026-04-15 12:51 38.82377 -9.10664 2860 ft 191 kts 28°
2026-04-15 12:51 38.83586 -9.09825 3301 ft 207 kts 26°
2026-04-15 12:52 38.84920 -9.08940 3702 ft 227 kts 26°
2026-04-15 12:52 38.86394 -9.07966 4126 ft 248 kts 27°
2026-04-15 12:52 38.87791 -9.06545 4623 ft 268 kts 56°
2026-04-15 12:52 38.88390 -9.04274 5389 ft 275 kts 86°
2026-04-15 12:53 38.88068 -9.01873 6212 ft 279 kts 114°
2026-04-15 12:53 38.87118 -8.99749 7000 ft 282 kts 121°
2026-04-15 12:53 38.85894 -8.97776 7723 ft 286 kts 142°
2026-04-15 12:53 38.84107 -8.96699 8431 ft 289 kts 170°
2026-04-15 12:54 38.82107 -8.96789 9123 ft 290 kts 198°
2026-04-15 12:54 38.80241 -8.97762 9805 ft 293 kts 205°
2026-04-15 12:54 38.78384 -8.98812 10447 ft 297 kts 204°
2026-04-15 12:54 38.76461 -8.99880 10890 ft 308 kts 204°
2026-04-15 12:55 38.74439 -9.00984 11244 ft 322 kts 204°
2026-04-15 12:55 38.72360 -9.02107 11843 ft 325 kts 204°
2026-04-15 12:55 38.70259 -9.03236 12486 ft 328 kts 205°
2026-04-15 12:55 38.68137 -9.04373 13124 ft 330 kts 205°
2026-04-15 12:56 38.66047 -9.05492 13713 ft 332 kts 205°
2026-04-15 12:56 38.63896 -9.06644 14300 ft 335 kts 205°
2026-04-15 12:56 38.61746 -9.07793 14899 ft 338 kts 205°
2026-04-15 12:56 38.59571 -9.08955 15495 ft 341 kts 205°
2026-04-15 12:57 38.57381 -9.10125 16083 ft 342 kts 205°
2026-04-15 12:57 38.55177 -9.11301 16653 ft 345 kts 205°
2026-04-15 12:57 38.52939 -9.12494 17230 ft 348 kts 205°
2026-04-15 12:57 38.50726 -9.13673 17794 ft 350 kts 205°
2026-04-15 12:58 38.48472 -9.14872 18349 ft 352 kts 205°
2026-04-15 12:58 38.46183 -9.16088 18887 ft 355 kts 205°
2026-04-15 12:58 38.43923 -9.17328 19417 ft 357 kts 208°
2026-04-15 12:58 38.41721 -9.18832 19957 ft 358 kts 214°
2026-04-15 12:59 38.37658 -9.22536 21006 ft 360 kts 220°
2026-04-15 12:59 38.35689 -9.24464 21511 ft 362 kts 220°
2026-04-15 12:59 38.33686 -9.26425 22021 ft 364 kts 220°
2026-04-15 13:00 38.31681 -9.28383 22505 ft 367 kts 220°
2026-04-15 13:00 38.29646 -9.30368 22995 ft 369 kts 220°
2026-04-15 13:00 38.27597 -9.32362 23478 ft 371 kts 220°
2026-04-15 13:00 38.25550 -9.34353 23957 ft 373 kts 220°
2026-04-15 13:01 38.23483 -9.36362 24447 ft 375 kts 220°
2026-04-15 13:01 38.21390 -9.38393 24936 ft 377 kts 220°
2026-04-15 13:01 38.19325 -9.40397 25403 ft 377 kts 220°
2026-04-15 13:01 38.17218 -9.42440 25854 ft 380 kts 220°
2026-04-15 13:02 38.15108 -9.44484 26319 ft 382 kts 220°
2026-04-15 13:02 38.13017 -9.46508 26758 ft 384 kts 220°
2026-04-15 13:02 38.10870 -9.48585 27176 ft 387 kts 220°
2026-04-15 13:02 38.08722 -9.50662 27611 ft 389 kts 220°
2026-04-15 13:03 38.06569 -9.52741 28031 ft 390 kts 220°
2026-04-15 13:03 38.04407 -9.54826 28431 ft 392 kts 220°
2026-04-15 13:03 38.02231 -9.56923 28819 ft 393 kts 220°
2026-04-15 13:03 38.00061 -9.59038 29214 ft 394 kts 221°
2026-04-15 13:04 37.97976 -9.61237 29585 ft 395 kts 223°
2026-04-15 13:04 37.95872 -9.63482 29945 ft 396 kts 223°
2026-04-15 13:04 37.93755 -9.65738 30295 ft 397 kts 222°
2026-04-15 13:04 37.91645 -9.67986 30632 ft 399 kts 222°
2026-04-15 13:05 37.89537 -9.70233 30929 ft 400 kts 222°
2026-04-15 13:05 37.87384 -9.72525 31213 ft 402 kts 222°
2026-04-15 13:05 37.85242 -9.74804 31480 ft 404 kts 222°
2026-04-15 13:05 37.83080 -9.77103 31737 ft 406 kts 222°
2026-04-15 13:06 37.80911 -9.79407 31982 ft 408 kts 222°
2026-04-15 13:06 37.78754 -9.81696 32229 ft 409 kts 222°
2026-04-15 13:06 37.76583 -9.83998 32525 ft 409 kts 222°
2026-04-15 13:06 37.74406 -9.86305 32856 ft 407 kts 222°
2026-04-15 13:07 37.72243 -9.88597 33172 ft 406 kts 222°
2026-04-15 13:07 37.70089 -9.90877 33461 ft 405 kts 222°
2026-04-15 13:07 37.67928 -9.93163 33739 ft 405 kts 222°
2026-04-15 13:07 37.65752 -9.95462 34014 ft 405 kts 222°
2026-04-15 13:08 37.63617 -9.97711 34287 ft 404 kts 221°
2026-04-15 13:08 37.61381 -9.99901 34564 ft 404 kts 218°
2026-04-15 13:08 37.59120 -10.01944 34839 ft 404 kts 218°
2026-04-15 13:08 37.56820 -10.04020 35117 ft 403 kts 218°
2026-04-15 13:09 37.54566 -10.06054 35379 ft 402 kts 218°
2026-04-15 13:09 37.52289 -10.08108 35643 ft 401 kts 218°
2026-04-15 13:09 37.50030 -10.10142 35903 ft 400 kts 218°
2026-04-15 13:09 37.47751 -10.12194 36158 ft 399 kts 218°
2026-04-15 13:10 37.45512 -10.14208 36393 ft 398 kts 218°
2026-04-15 13:10 37.43267 -10.16226 36622 ft 397 kts 218°
2026-04-15 13:10 37.41010 -10.18253 36837 ft 396 kts 218°
2026-04-15 13:10 37.38794 -10.20241 37016 ft 397 kts 218°
2026-04-15 13:11 37.36530 -10.22272 37176 ft 397 kts 218°
2026-04-15 13:11 37.34306 -10.24266 37299 ft 398 kts 218°
2026-04-15 13:11 37.29804 -10.28295 37351 ft 396 kts 219°
2026-04-15 13:12 37.25329 -10.32294 37319 ft 396 kts 219°
2026-04-15 13:12 37.20857 -10.36285 37301 ft 395 kts 219°
2026-04-15 13:13 37.16378 -10.40277 37269 ft 396 kts 218°
2026-04-15 13:13 37.11902 -10.44259 37264 ft 396 kts 218°
2026-04-15 13:14 37.07390 -10.48268 37274 ft 396 kts 218°
2026-04-15 13:14 37.02914 -10.52237 37277 ft 396 kts 218°
2026-04-15 13:15 36.98425 -10.56214 37281 ft 396 kts 218°
2026-04-15 13:15 36.93929 -10.60190 37283 ft 397 kts 218°
2026-04-15 13:16 36.89424 -10.64169 37282 ft 397 kts 218°
2026-04-15 13:16 36.84913 -10.68146 37282 ft 397 kts 218°
2026-04-15 13:17 36.80429 -10.72095 37282 ft 397 kts 218°
2026-04-15 13:17 36.75899 -10.76077 37281 ft 397 kts 218°
2026-04-15 13:18 36.71405 -10.80022 37281 ft 397 kts 218°
2026-04-15 13:18 36.66901 -10.83971 37281 ft 397 kts 218°
2026-04-15 13:19 36.62393 -10.87918 37280 ft 397 kts 218°
2026-04-15 13:19 36.57887 -10.91858 37279 ft 397 kts 218°
2026-04-15 13:20 36.53375 -10.95796 37278 ft 397 kts 218°
2026-04-15 13:20 36.48860 -10.99731 37277 ft 397 kts 218°
2026-04-15 13:21 36.44324 -11.03679 37277 ft 397 kts 218°
2026-04-15 13:21 36.39798 -11.07612 37276 ft 397 kts 218°
2026-04-15 13:22 36.35276 -11.11536 37276 ft 397 kts 218°
2026-04-15 13:22 36.30758 -11.15451 37275 ft 397 kts 218°
2026-04-15 13:23 36.26222 -11.19377 37275 ft 397 kts 218°
2026-04-15 13:23 36.21699 -11.23285 37274 ft 397 kts 218°
2026-04-15 13:24 36.17195 -11.27172 37273 ft 397 kts 218°
2026-04-15 13:24 36.12665 -11.31076 37273 ft 397 kts 218°
2026-04-15 13:25 36.08139 -11.34971 37272 ft 397 kts 218°
2026-04-15 13:25 36.03620 -11.38856 37271 ft 397 kts 218°
2026-04-15 13:26 35.99111 -11.42724 37271 ft 397 kts 218°
2026-04-15 13:26 35.94577 -11.46638 37269 ft 396 kts 218°
2026-04-15 13:27 35.90110 -11.50570 37264 ft 396 kts 218°
2026-04-15 13:27 35.85625 -11.54516 37264 ft 397 kts 218°
2026-04-15 13:28 35.81134 -11.58457 37269 ft 397 kts 218°
2026-04-15 13:28 35.76639 -11.62394 37270 ft 397 kts 218°
2026-04-15 13:29 35.72141 -11.66329 37269 ft 397 kts 218°
2026-04-15 13:29 35.67624 -11.70274 37268 ft 397 kts 218°
2026-04-15 13:30 35.63134 -11.74190 37266 ft 397 kts 218°
2026-04-15 13:30 35.58636 -11.78108 37266 ft 397 kts 218°
2026-04-15 13:31 35.54137 -11.82021 37261 ft 397 kts 218°
2026-04-15 13:31 35.49636 -11.85931 37252 ft 397 kts 218°
2026-04-15 13:32 35.45147 -11.89826 37246 ft 397 kts 218°
2026-04-15 13:32 35.40617 -11.93750 37244 ft 397 kts 218°
2026-04-15 13:33 35.36132 -11.97628 37244 ft 398 kts 218°
2026-04-15 13:33 35.31617 -12.01528 37244 ft 398 kts 218°
2026-04-15 13:34 35.27071 -12.05449 37247 ft 397 kts 217°
2026-04-15 13:34 35.22564 -12.09332 37246 ft 397 kts 217°
2026-04-15 13:35 35.18048 -12.13215 37242 ft 397 kts 217°
2026-04-15 13:35 35.13542 -12.17086 37241 ft 397 kts 217°
2026-04-15 13:36 35.09034 -12.20954 37240 ft 397 kts 217°
2026-04-15 13:36 35.04504 -12.24833 37240 ft 397 kts 217°
2026-04-15 13:37 34.99989 -12.28696 37241 ft 397 kts 217°
2026-04-15 13:37 34.95444 -12.32577 37240 ft 398 kts 217°
2026-04-15 13:38 34.90938 -12.36420 37240 ft 398 kts 217°
2026-04-15 13:38 34.86386 -12.40297 37240 ft 398 kts 217°
2026-04-15 13:39 34.81876 -12.44133 37240 ft 398 kts 217°
2026-04-15 13:39 34.77333 -12.47993 37240 ft 398 kts 217°
2026-04-15 13:40 34.72820 -12.51822 37240 ft 398 kts 217°
2026-04-15 13:40 34.68267 -12.55680 37239 ft 398 kts 217°
2026-04-15 13:41 34.63746 -12.59504 37237 ft 399 kts 217°
2026-04-15 13:41 34.59169 -12.63372 37231 ft 399 kts 217°
2026-04-15 13:42 34.54615 -12.67214 37229 ft 399 kts 216°
2026-04-15 13:42 34.50065 -12.71049 37228 ft 400 kts 216°
2026-04-15 13:43 34.45493 -12.74896 37229 ft 400 kts 216°
2026-04-15 13:43 34.40953 -12.78712 37229 ft 400 kts 216°
2026-04-15 13:44 34.36389 -12.82544 37230 ft 400 kts 216°
2026-04-15 13:44 34.31813 -12.86381 37231 ft 400 kts 216°
2026-04-15 13:45 34.27266 -12.90186 37231 ft 399 kts 216°
2026-04-15 13:47 34.09058 -13.05519 37233 ft 399 kts 216°
2026-04-15 13:47 34.04508 -13.09343 37234 ft 399 kts 216°
2026-04-15 13:48 33.99968 -13.13153 37235 ft 399 kts 216°
2026-04-15 13:48 33.95414 -13.16970 37232 ft 399 kts 216°
2026-04-15 13:49 33.90850 -13.20792 37224 ft 400 kts 216°
2026-04-15 13:49 33.86289 -13.24607 37227 ft 400 kts 216°
2026-04-15 13:50 33.81721 -13.28418 37239 ft 400 kts 216°
2026-04-15 13:50 33.77135 -13.32239 37242 ft 400 kts 216°
2026-04-15 13:51 33.72568 -13.36041 37240 ft 400 kts 216°
2026-04-15 13:51 33.67994 -13.39844 37237 ft 400 kts 216°
2026-04-15 13:52 33.63437 -13.43628 37234 ft 400 kts 216°
2026-04-15 13:52 33.58873 -13.47413 37233 ft 400 kts 216°
2026-04-15 13:53 33.54282 -13.51215 37235 ft 400 kts 216°
2026-04-15 13:53 33.49701 -13.55004 37236 ft 400 kts 216°
2026-04-15 13:54 33.45140 -13.58772 37238 ft 400 kts 216°
2026-04-15 13:54 33.40547 -13.62562 37239 ft 400 kts 216°
2026-04-15 13:55 33.35992 -13.66315 37240 ft 400 kts 215°
2026-04-15 13:55 33.31396 -13.70097 37241 ft 400 kts 215°
2026-04-15 13:56 33.26813 -13.73865 37242 ft 400 kts 215°
2026-04-15 13:56 33.22253 -13.77609 37243 ft 400 kts 215°
2026-04-15 13:57 33.17643 -13.81388 37245 ft 400 kts 215°
2026-04-15 13:57 33.13061 -13.85131 37250 ft 401 kts 214°
2026-04-15 13:58 33.08451 -13.88869 37252 ft 401 kts 214°
2026-04-15 13:58 33.03850 -13.92597 37253 ft 401 kts 214°
2026-04-15 13:59 32.99227 -13.96340 37254 ft 401 kts 214°
2026-04-15 13:59 32.94605 -14.00078 37255 ft 402 kts 214°
2026-04-15 14:00 32.90014 -14.03787 37257 ft 402 kts 214°
2026-04-15 14:00 32.85377 -14.07528 37258 ft 402 kts 214°
2026-04-15 14:01 32.78464 -14.13099 37260 ft 402 kts 214°
2026-04-15 14:02 32.73809 -14.16843 37259 ft 402 kts 213°
2026-04-15 14:02 32.69188 -14.20554 37258 ft 402 kts 213°
2026-04-15 14:03 32.64537 -14.24284 37258 ft 403 kts 213°
2026-04-15 14:03 32.59914 -14.27987 37255 ft 403 kts 213°
2026-04-15 14:04 32.55286 -14.31690 37252 ft 403 kts 213°
2026-04-15 14:04 32.50628 -14.35413 37251 ft 403 kts 213°
2026-04-15 14:05 32.45975 -14.39126 37252 ft 403 kts 213°
2026-04-15 14:05 32.41359 -14.42805 37252 ft 403 kts 213°
2026-04-15 14:06 32.36688 -14.46525 37253 ft 403 kts 213°
2026-04-15 14:06 32.32053 -14.50210 37253 ft 403 kts 213°
2026-04-15 14:07 32.27383 -14.53918 37254 ft 403 kts 213°
2026-04-15 14:07 32.22725 -14.57612 37253 ft 403 kts 213°
2026-04-15 14:08 32.18097 -14.61279 37254 ft 403 kts 213°
2026-04-15 14:08 32.13430 -14.64970 37254 ft 403 kts 213°
2026-04-15 14:09 32.08758 -14.68662 37254 ft 403 kts 212°
2026-04-15 14:09 32.04098 -14.72340 37253 ft 403 kts 212°
2026-04-15 14:10 31.99428 -14.76020 37253 ft 403 kts 212°
2026-04-15 14:10 31.94767 -14.79689 37252 ft 403 kts 212°
2026-04-15 14:11 31.90105 -14.83356 37231 ft 404 kts 212°
2026-04-15 14:11 31.85439 -14.87022 37220 ft 405 kts 212°
2026-04-15 14:12 31.80753 -14.90698 37239 ft 405 kts 212°
2026-04-15 14:12 31.76079 -14.94357 37248 ft 405 kts 212°
2026-04-15 14:13 31.71373 -14.98039 37248 ft 406 kts 212°
2026-04-15 14:13 31.66680 -15.01706 37245 ft 406 kts 212°
2026-04-15 14:14 31.61988 -15.05367 37240 ft 406 kts 212°
2026-04-15 14:14 31.57295 -15.09026 37237 ft 406 kts 212°
2026-04-15 14:15 31.52610 -15.12674 37235 ft 406 kts 212°
2026-04-15 14:15 31.47910 -15.16329 37229 ft 406 kts 212°
2026-04-15 14:16 31.43185 -15.20000 37224 ft 406 kts 212°
2026-04-15 14:16 31.38471 -15.23658 37221 ft 406 kts 212°
2026-04-15 14:17 31.33776 -15.27296 37218 ft 406 kts 212°
2026-04-15 14:17 31.29008 -15.30824 37212 ft 405 kts 208°
2026-04-15 14:18 31.24062 -15.33992 37207 ft 405 kts 207°
2026-04-15 14:18 31.19115 -15.37151 37204 ft 405 kts 207°
2026-04-15 14:19 31.14186 -15.40293 37202 ft 405 kts 207°
2026-04-15 14:19 31.09222 -15.43454 37200 ft 405 kts 207°
2026-04-15 14:20 31.04279 -15.46597 37199 ft 406 kts 207°
2026-04-15 14:20 30.99313 -15.49752 37197 ft 406 kts 207°
2026-04-15 14:21 30.94370 -15.52888 37195 ft 405 kts 207°
2026-04-15 14:21 30.89404 -15.56035 37194 ft 406 kts 207°
2026-04-15 14:22 30.84446 -15.59173 37191 ft 405 kts 207°
2026-04-15 14:22 30.79509 -15.62294 37189 ft 405 kts 207°
2026-04-15 14:23 30.74566 -15.65414 37188 ft 406 kts 206°
2026-04-15 14:23 30.69605 -15.68544 37186 ft 406 kts 206°
2026-04-15 14:24 30.64638 -15.71670 37185 ft 406 kts 206°
2026-04-15 14:24 30.59665 -15.74799 37183 ft 406 kts 206°
2026-04-15 14:25 30.54710 -15.77914 37182 ft 406 kts 206°
2026-04-15 14:25 30.49744 -15.81033 37180 ft 406 kts 206°
2026-04-15 14:26 30.44769 -15.84153 37176 ft 406 kts 206°
2026-04-15 14:26 30.39809 -15.87256 37166 ft 406 kts 206°
2026-04-15 14:27 30.34832 -15.90365 37157 ft 407 kts 206°
2026-04-15 14:27 30.29839 -15.93483 37154 ft 407 kts 206°
2026-04-15 14:28 30.24862 -15.96588 37154 ft 408 kts 206°
2026-04-15 14:28 30.19859 -15.99706 37154 ft 408 kts 206°
2026-04-15 14:29 30.14881 -16.02805 37154 ft 408 kts 206°
2026-04-15 14:29 30.09886 -16.05911 37152 ft 408 kts 206°
2026-04-15 14:30 30.04891 -16.09013 37151 ft 408 kts 206°
2026-04-15 14:30 29.99883 -16.12121 37151 ft 408 kts 206°
2026-04-15 14:31 29.94912 -16.15202 37149 ft 408 kts 206°
2026-04-15 14:31 29.89892 -16.18309 37148 ft 409 kts 206°
2026-04-15 14:32 29.84851 -16.21426 37147 ft 409 kts 206°
2026-04-15 14:32 29.79856 -16.24511 37146 ft 408 kts 206°
2026-04-15 14:33 29.74868 -16.27589 37143 ft 408 kts 206°
2026-04-15 14:33 29.69841 -16.30688 37141 ft 408 kts 206°
2026-04-15 14:34 29.64843 -16.33766 37139 ft 408 kts 206°
2026-04-15 14:34 29.59843 -16.36840 37139 ft 409 kts 206°
2026-04-15 14:35 29.54810 -16.39926 37139 ft 409 kts 206°
2026-04-15 14:35 29.49809 -16.42989 37140 ft 409 kts 206°
2026-04-15 14:36 29.44780 -16.46069 37140 ft 409 kts 207°
2026-04-15 14:36 29.39792 -16.49120 37139 ft 409 kts 207°
2026-04-15 14:37 29.34767 -16.52191 37138 ft 409 kts 207°
2026-04-15 14:37 29.29722 -16.55271 37136 ft 410 kts 207°
2026-04-15 14:38 29.24708 -16.58328 37135 ft 410 kts 207°
2026-04-15 14:38 29.19682 -16.61391 37134 ft 410 kts 207°
2026-04-15 14:39 29.14661 -16.64447 37135 ft 410 kts 207°
2026-04-15 14:39 29.09635 -16.67502 37144 ft 409 kts 207°
2026-04-15 14:40 29.04575 -16.70575 37151 ft 410 kts 207°
2026-04-15 14:40 28.99529 -16.73637 37153 ft 410 kts 207°
2026-04-15 14:41 28.94508 -16.76679 37152 ft 410 kts 207°
2026-04-15 14:41 28.89453 -16.79738 37146 ft 410 kts 207°
2026-04-15 14:42 28.84410 -16.82786 37139 ft 410 kts 207°
2026-04-15 14:42 28.79378 -16.85824 37134 ft 410 kts 207°
2026-04-15 14:43 28.74364 -16.88849 37132 ft 410 kts 207°
2026-04-15 14:43 28.69308 -16.91895 37132 ft 410 kts 207°
2026-04-15 14:44 28.64278 -16.94922 37133 ft 410 kts 207°
2026-04-15 14:44 28.59226 -16.97958 37133 ft 411 kts 207°
2026-04-15 14:45 28.54165 -17.00997 37135 ft 411 kts 208°
2026-04-15 14:45 28.49115 -17.04027 37144 ft 411 kts 208°
2026-04-15 14:46 28.44046 -17.07064 37153 ft 410 kts 208°
2026-04-15 14:46 28.38998 -17.10085 37154 ft 411 kts 208°
2026-04-15 14:47 28.33945 -17.13106 37153 ft 411 kts 208°
2026-04-15 14:47 28.28899 -17.16121 37152 ft 411 kts 208°
2026-04-15 14:48 28.23842 -17.19138 37151 ft 411 kts 208°
2026-04-15 14:48 28.18777 -17.22157 37150 ft 411 kts 208°
2026-04-15 14:49 28.13725 -17.25166 37150 ft 411 kts 208°
2026-04-15 14:49 28.08626 -17.28199 37153 ft 412 kts 208°
2026-04-15 14:50 28.03564 -17.31207 37155 ft 412 kts 208°
2026-04-15 14:50 27.98561 -17.34407 37155 ft 412 kts 213°
2026-04-15 14:51 27.93767 -17.37969 37139 ft 412 kts 214°
2026-04-15 14:51 27.88971 -17.41543 37131 ft 411 kts 214°
2026-04-15 14:52 27.84226 -17.45080 37145 ft 410 kts 214°
2026-04-15 14:52 27.79435 -17.48649 37152 ft 411 kts 214°
2026-04-15 14:53 27.74669 -17.52194 37153 ft 411 kts 214°
2026-04-15 14:53 27.69891 -17.55743 37157 ft 413 kts 214°
2026-04-15 14:53 27.67489 -17.57527 37271 ft 413 kts 214°
2026-04-15 14:54 27.65078 -17.59315 37444 ft 411 kts 214°
2026-04-15 14:54 27.62690 -17.61086 37590 ft 411 kts 214°
2026-04-15 14:54 27.60325 -17.62839 37706 ft 411 kts 214°
2026-04-15 14:54 27.57909 -17.64628 37822 ft 411 kts 214°
2026-04-15 14:55 27.55547 -17.66376 37948 ft 411 kts 214°
2026-04-15 14:55 27.53153 -17.68146 38081 ft 411 kts 214°
2026-04-15 14:55 27.50770 -17.69909 38160 ft 411 kts 214°
2026-04-15 14:56 27.45977 -17.73451 38175 ft 411 kts 214°
2026-04-15 14:56 27.41203 -17.76974 38179 ft 410 kts 214°
2026-04-15 14:57 27.36436 -17.80489 38166 ft 410 kts 214°
2026-04-15 14:57 27.31650 -17.84014 38161 ft 410 kts 214°
2026-04-15 14:58 27.26889 -17.87518 38160 ft 410 kts 214°
2026-04-15 14:58 27.22118 -17.91024 38159 ft 409 kts 214°
2026-04-15 14:59 27.17354 -17.94522 38159 ft 409 kts 214°
2026-04-15 14:59 27.12604 -17.98006 38158 ft 409 kts 214°
2026-04-15 15:00 27.07824 -18.01509 38157 ft 409 kts 214°
2026-04-15 15:00 27.03057 -18.04998 38156 ft 409 kts 214°
2026-04-15 15:01 26.98301 -18.08475 38150 ft 409 kts 214°
2026-04-15 15:01 26.93523 -18.11965 38146 ft 409 kts 215°
2026-04-15 15:02 26.88771 -18.15433 38151 ft 410 kts 215°
2026-04-15 15:02 26.83969 -18.18934 38152 ft 410 kts 215°
2026-04-15 15:03 26.79204 -18.22405 38152 ft 410 kts 215°
2026-04-15 15:03 26.74432 -18.25877 38152 ft 410 kts 215°
2026-04-15 15:04 26.69645 -18.29357 38151 ft 409 kts 215°
2026-04-15 15:04 26.64867 -18.32826 38150 ft 409 kts 215°
2026-04-15 15:05 26.60103 -18.36282 38150 ft 409 kts 215°
2026-04-15 15:05 26.55338 -18.39734 38150 ft 409 kts 215°
2026-04-15 15:06 26.48167 -18.44923 38149 ft 409 kts 215°
2026-04-15 15:06 26.43403 -18.48366 38149 ft 409 kts 215°
2026-04-15 15:07 26.38625 -18.51816 38148 ft 409 kts 215°
2026-04-15 15:07 26.33839 -18.55269 38148 ft 409 kts 215°
2026-04-15 15:08 26.29069 -18.58706 38148 ft 409 kts 215°
2026-04-15 15:08 26.24275 -18.62157 38147 ft 409 kts 215°
2026-04-15 15:09 26.19491 -18.65598 38147 ft 409 kts 214°
2026-04-15 15:09 26.14719 -18.69027 38146 ft 410 kts 215°
2026-04-15 15:10 26.09924 -18.72470 38145 ft 410 kts 215°
2026-04-15 15:10 26.05139 -18.75903 38144 ft 409 kts 215°
2026-04-15 15:11 26.00344 -18.79339 38143 ft 410 kts 215°
2026-04-15 15:11 25.95582 -18.82746 38141 ft 409 kts 214°
2026-04-15 15:12 25.90768 -18.86182 38139 ft 409 kts 215°
2026-04-15 15:12 25.86002 -18.89583 38139 ft 408 kts 215°
2026-04-15 15:13 25.81228 -18.92989 38140 ft 408 kts 215°
2026-04-15 15:13 25.76453 -18.96393 38139 ft 408 kts 215°
2026-04-15 15:14 25.71670 -18.99800 38138 ft 408 kts 215°
2026-04-15 15:14 25.66895 -19.03197 38144 ft 408 kts 215°
2026-04-15 15:15 25.62131 -19.06581 38155 ft 408 kts 215°
2026-04-15 15:15 25.57352 -19.09973 38147 ft 409 kts 216°
2026-04-15 15:16 25.52572 -19.13367 38132 ft 409 kts 216°
2026-04-15 15:16 25.47768 -19.16772 38128 ft 409 kts 216°
2026-04-15 15:17 25.42979 -19.20163 38126 ft 409 kts 216°
2026-04-15 15:17 25.38183 -19.23556 38126 ft 409 kts 216°
2026-04-15 15:18 25.33415 -19.26926 38125 ft 409 kts 216°
2026-04-15 15:18 25.28607 -19.30322 38124 ft 409 kts 216°
2026-04-15 15:19 25.23821 -19.33698 38124 ft 409 kts 216°
2026-04-15 15:19 25.19042 -19.37066 38123 ft 409 kts 216°
2026-04-15 15:20 25.14225 -19.40459 38122 ft 409 kts 216°
2026-04-15 15:20 25.09433 -19.43830 38121 ft 408 kts 216°
2026-04-15 15:21 25.04646 -19.47197 38120 ft 408 kts 216°
2026-04-15 15:21 24.99861 -19.50556 38119 ft 409 kts 216°
2026-04-15 15:22 24.95074 -19.53907 38119 ft 408 kts 216°
2026-04-15 15:22 24.90271 -19.57268 38118 ft 408 kts 216°
2026-04-15 15:23 24.85490 -19.60612 38117 ft 408 kts 216°
2026-04-15 15:23 24.80683 -19.63973 38116 ft 408 kts 216°
2026-04-15 15:24 24.75904 -19.67310 38116 ft 408 kts 216°
2026-04-15 15:24 24.71109 -19.70658 38115 ft 408 kts 216°
2026-04-15 15:25 24.66328 -19.73991 38114 ft 407 kts 216°
2026-04-15 15:25 24.61531 -19.77332 38113 ft 407 kts 216°
2026-04-15 15:26 24.56743 -19.80665 38112 ft 408 kts 216°
2026-04-15 15:26 24.51945 -19.84002 38112 ft 408 kts 216°
2026-04-15 15:27 24.47126 -19.87349 38111 ft 409 kts 216°
2026-04-15 15:27 24.42339 -19.90671 38110 ft 409 kts 216°
2026-04-15 15:28 24.37533 -19.94004 38109 ft 408 kts 216°
2026-04-15 15:28 24.32735 -19.97327 38108 ft 408 kts 216°
2026-04-15 15:29 24.27916 -20.00663 38107 ft 408 kts 217°
2026-04-15 15:29 24.23116 -20.03983 38106 ft 408 kts 217°
2026-04-15 15:30 24.18326 -20.07292 38105 ft 408 kts 217°
2026-04-15 15:30 24.13513 -20.10614 38105 ft 408 kts 217°
2026-04-15 15:31 24.08700 -20.13934 38104 ft 408 kts 217°
2026-04-15 15:31 24.03908 -20.17237 38103 ft 408 kts 217°
2026-04-15 15:32 23.99085 -20.20558 38103 ft 408 kts 217°
2026-04-15 15:32 23.94290 -20.23856 38102 ft 408 kts 217°
2026-04-15 15:33 23.89496 -20.27150 38102 ft 408 kts 217°
2026-04-15 15:33 23.84683 -20.30455 38101 ft 408 kts 217°
2026-04-15 15:34 23.79864 -20.33760 38101 ft 408 kts 217°
2026-04-15 15:34 23.75062 -20.37051 38099 ft 408 kts 217°
2026-04-15 15:35 23.70258 -20.40341 38078 ft 408 kts 217°
2026-04-15 15:35 23.65446 -20.43634 38045 ft 408 kts 217°
2026-04-15 15:36 23.60637 -20.46921 38030 ft 408 kts 217°
2026-04-15 15:36 23.55826 -20.50208 38026 ft 408 kts 217°
2026-04-15 15:37 23.51021 -20.53487 38026 ft 408 kts 217°
2026-04-15 15:37 23.46208 -20.56769 38026 ft 408 kts 217°
2026-04-15 15:38 23.41383 -20.60055 38027 ft 408 kts 217°
2026-04-15 15:38 23.36573 -20.63329 38027 ft 408 kts 217°
2026-04-15 15:39 23.31772 -20.66593 38028 ft 408 kts 217°
2026-04-15 15:39 23.26951 -20.69869 38027 ft 408 kts 217°
2026-04-15 15:40 23.22131 -20.73143 38026 ft 408 kts 217°
2026-04-15 15:40 23.17300 -20.76421 38026 ft 408 kts 217°
2026-04-15 15:41 23.12495 -20.79679 38026 ft 408 kts 217°
2026-04-15 15:41 23.07700 -20.82926 38025 ft 408 kts 217°
2026-04-15 15:42 23.02865 -20.86194 38025 ft 408 kts 217°
2026-04-15 15:42 22.98072 -20.89430 38025 ft 407 kts 217°
2026-04-15 15:43 22.93253 -20.92683 38024 ft 407 kts 217°
2026-04-15 15:43 22.88438 -20.95931 38024 ft 407 kts 217°
2026-04-15 15:44 22.83632 -20.99172 38024 ft 407 kts 217°
2026-04-15 15:44 22.78805 -21.02424 38024 ft 408 kts 217°
2026-04-15 15:45 22.73990 -21.05665 38023 ft 408 kts 217°
2026-04-15 15:45 22.69142 -21.08924 38023 ft 409 kts 217°
2026-04-15 15:46 22.64328 -21.12159 38023 ft 408 kts 217°
2026-04-15 15:46 22.59476 -21.15417 38023 ft 408 kts 217°
2026-04-15 15:47 22.54668 -21.18642 38023 ft 408 kts 217°
2026-04-15 15:47 22.49848 -21.21873 38022 ft 408 kts 217°
2026-04-15 15:48 22.44985 -21.25130 38022 ft 408 kts 217°
2026-04-15 15:48 22.40167 -21.28354 38022 ft 408 kts 217°
2026-04-15 15:49 22.35322 -21.31593 38022 ft 408 kts 217°
2026-04-15 15:49 22.30499 -21.34815 38022 ft 408 kts 218°
2026-04-15 15:50 22.25670 -21.38038 38021 ft 408 kts 218°
2026-04-15 15:50 22.20857 -21.41249 38021 ft 408 kts 218°
2026-04-15 15:51 22.16010 -21.44479 38021 ft 408 kts 218°
2026-04-15 15:51 22.11192 -21.47688 38021 ft 408 kts 218°
2026-04-15 15:52 22.06334 -21.50920 38020 ft 408 kts 218°
2026-04-15 15:52 22.01497 -21.54135 38020 ft 408 kts 218°
2026-04-15 15:53 21.96665 -21.57345 38019 ft 408 kts 218°
2026-04-15 15:53 21.91841 -21.60546 38021 ft 408 kts 218°
2026-04-15 15:54 21.87018 -21.63745 38024 ft 407 kts 218°
2026-04-15 15:54 21.82213 -21.66928 38022 ft 407 kts 217°
2026-04-15 15:55 21.77362 -21.70141 38017 ft 407 kts 217°
2026-04-15 15:55 21.72537 -21.73334 38016 ft 407 kts 217°
2026-04-15 15:56 21.67717 -21.76520 38016 ft 407 kts 217°
2026-04-15 15:56 21.62913 -21.79694 38016 ft 408 kts 217°
2026-04-15 15:57 21.58074 -21.82889 38017 ft 407 kts 217°
2026-04-15 15:57 21.53234 -21.86083 38017 ft 407 kts 217°
2026-04-15 15:58 21.48406 -21.89265 38017 ft 407 kts 217°
2026-04-15 15:58 21.43600 -21.92422 38017 ft 407 kts 216°
2026-04-15 15:59 21.38406 -21.95053 38016 ft 415 kts 206°
2026-04-15 15:59 21.32776 -21.96692 38015 ft 423 kts 197°
2026-04-15 16:00 21.26875 -21.97240 38016 ft 430 kts 187°
2026-04-15 16:00 21.20889 -21.97199 38016 ft 430 kts 186°
2026-04-15 16:01 21.14886 -21.97130 38016 ft 430 kts 187°
2026-04-15 16:01 21.08910 -21.97067 38016 ft 430 kts 187°
2026-04-15 16:02 21.02911 -21.97007 38016 ft 430 kts 187°
2026-04-15 16:02 20.96919 -21.96950 38016 ft 431 kts 187°
2026-04-15 16:03 20.90902 -21.96891 38016 ft 430 kts 187°
2026-04-15 16:03 20.84919 -21.96833 38015 ft 430 kts 187°
2026-04-15 16:04 20.78922 -21.96775 38004 ft 429 kts 187°
2026-04-15 16:04 20.72939 -21.96718 37987 ft 429 kts 187°
2026-04-15 16:05 20.66985 -21.96662 37979 ft 430 kts 187°
2026-04-15 16:05 20.60986 -21.96605 37977 ft 430 kts 187°
2026-04-15 16:06 20.54999 -21.96548 37977 ft 429 kts 188°
2026-04-15 16:06 20.49011 -21.96491 37977 ft 429 kts 188°
2026-04-15 16:07 20.43052 -21.96434 37978 ft 429 kts 188°
2026-04-15 16:08 20.34052 -21.96348 37977 ft 429 kts 188°
2026-04-15 16:08 20.28083 -21.96292 37978 ft 430 kts 188°
2026-04-15 16:09 20.22106 -21.96236 37977 ft 430 kts 188°
2026-04-15 16:09 20.16128 -21.96180 37977 ft 430 kts 188°
2026-04-15 16:10 20.10134 -21.96124 37977 ft 430 kts 188°
2026-04-15 16:10 20.04122 -21.96067 37977 ft 430 kts 188°
2026-04-15 16:11 19.98148 -21.96010 37976 ft 430 kts 188°
2026-04-15 16:11 19.92151 -21.95954 37976 ft 430 kts 188°
2026-04-15 16:12 19.86139 -21.95897 37976 ft 430 kts 188°
2026-04-15 16:12 19.80138 -21.95840 37976 ft 430 kts 188°
2026-04-15 16:13 19.74152 -21.95784 37976 ft 430 kts 188°
2026-04-15 16:13 19.68167 -21.95727 37976 ft 430 kts 188°
2026-04-15 16:14 19.62166 -21.95670 37976 ft 430 kts 188°
2026-04-15 16:14 19.56159 -21.95613 37976 ft 430 kts 188°
2026-04-15 16:15 19.50189 -21.95557 37976 ft 430 kts 188°
2026-04-15 16:15 19.44186 -21.95500 37973 ft 430 kts 188°
2026-04-15 16:16 19.38212 -21.95444 37971 ft 430 kts 188°
2026-04-15 16:16 19.32211 -21.95388 37971 ft 430 kts 188°
2026-04-15 16:17 19.26226 -21.95332 37972 ft 430 kts 188°
2026-04-15 16:17 19.20213 -21.95275 37972 ft 431 kts 188°
2026-04-15 16:18 19.14197 -21.95219 37973 ft 431 kts 188°
2026-04-15 16:18 19.08214 -21.95163 37974 ft 431 kts 188°
2026-04-15 16:19 19.02217 -21.95107 37974 ft 431 kts 189°
2026-04-15 16:19 18.96216 -21.95051 37975 ft 431 kts 189°
2026-04-15 16:20 18.90193 -21.94995 37976 ft 431 kts 189°
2026-04-15 16:20 18.84189 -21.94940 37976 ft 431 kts 189°
2026-04-15 16:21 18.78161 -21.94883 37978 ft 432 kts 189°
2026-04-15 16:21 18.72146 -21.94827 37978 ft 432 kts 189°
2026-04-15 16:22 18.66159 -21.94771 37980 ft 432 kts 189°
2026-04-15 16:22 18.60122 -21.94714 37982 ft 431 kts 189°
2026-04-15 16:23 18.54093 -21.94658 37984 ft 431 kts 189°
2026-04-15 16:23 18.48110 -21.94604 37985 ft 432 kts 189°
2026-04-15 16:24 18.42072 -21.94548 37986 ft 432 kts 189°
2026-04-15 16:24 18.36072 -21.94493 37986 ft 432 kts 189°
2026-04-15 16:25 18.30054 -21.94437 37987 ft 432 kts 189°
2026-04-15 16:25 18.24025 -21.94381 37988 ft 433 kts 189°
2026-04-15 16:26 18.17980 -21.94324 37988 ft 433 kts 189°
2026-04-15 16:26 18.11947 -21.94267 37989 ft 433 kts 190°
2026-04-15 16:27 18.05890 -21.94212 37829 ft 434 kts 190°
2026-04-15 16:27 18.02881 -21.94183 37589 ft 431 kts 190°
2026-04-15 16:27 17.99888 -21.94153 37249 ft 429 kts 190°
2026-04-15 16:27 17.96889 -21.94125 36738 ft 430 kts 190°
2026-04-15 16:28 17.93891 -21.94100 36207 ft 430 kts 190°
2026-04-15 16:28 17.90909 -21.94074 35675 ft 430 kts 189°
2026-04-15 16:28 17.87926 -21.94046 35175 ft 429 kts 189°
2026-04-15 16:28 17.84946 -21.94018 34639 ft 428 kts 189°
2026-04-15 16:29 17.81971 -21.93990 34121 ft 424 kts 189°
2026-04-15 16:29 17.79041 -21.93961 33629 ft 421 kts 189°
2026-04-15 16:29 17.76077 -21.93936 33138 ft 422 kts 189°
2026-04-15 16:29 17.73122 -21.93911 32640 ft 423 kts 189°
2026-04-15 16:30 17.70202 -21.93977 32078 ft 416 kts 196°
2026-04-15 16:30 17.67434 -21.94584 31481 ft 403 kts 207°
2026-04-15 16:30 17.64901 -21.95725 30854 ft 391 kts 217°
2026-04-15 16:30 17.62684 -21.97303 30251 ft 381 kts 227°
2026-04-15 16:31 17.60820 -21.99227 29601 ft 375 kts 234°
2026-04-15 16:31 17.59126 -22.01299 28956 ft 375 kts 235°
2026-04-15 16:31 17.57436 -22.03392 28380 ft 374 kts 234°
2026-04-15 16:31 17.55776 -22.05449 27836 ft 372 kts 234°
2026-04-15 16:32 17.54103 -22.07523 27313 ft 369 kts 234°
2026-04-15 16:32 17.52470 -22.09545 26822 ft 366 kts 234°
2026-04-15 16:32 17.50828 -22.11580 26334 ft 362 kts 234°
2026-04-15 16:32 17.49225 -22.13566 25876 ft 359 kts 234°
2026-04-15 16:33 17.47618 -22.15559 25419 ft 356 kts 234°
2026-04-15 16:33 17.46029 -22.17526 24966 ft 353 kts 234°
2026-04-15 16:33 17.44451 -22.19480 24513 ft 351 kts 234°
2026-04-15 16:33 17.42866 -22.21442 24058 ft 349 kts 234°
2026-04-15 16:34 17.41321 -22.23355 23615 ft 346 kts 233°
2026-04-15 16:34 17.39772 -22.25272 23172 ft 344 kts 233°
2026-04-15 16:34 17.38231 -22.27178 22730 ft 342 kts 233°
2026-04-15 16:34 17.36688 -22.29088 22296 ft 340 kts 233°
2026-04-15 16:35 17.35167 -22.30969 21867 ft 339 kts 233°
2026-04-15 16:35 17.33645 -22.32851 21433 ft 337 kts 233°
2026-04-15 16:35 17.32152 -22.34697 21006 ft 336 kts 233°
2026-04-15 16:35 17.30645 -22.36558 20580 ft 334 kts 233°
2026-04-15 16:36 17.29149 -22.38406 20154 ft 333 kts 233°
2026-04-15 16:36 17.27660 -22.40247 19721 ft 332 kts 232°
2026-04-15 16:36 17.26156 -22.42105 19280 ft 330 kts 232°
2026-04-15 16:36 17.24676 -22.43932 18843 ft 329 kts 232°
2026-04-15 16:37 17.23216 -22.45735 18413 ft 328 kts 232°
2026-04-15 16:37 17.21740 -22.47555 17977 ft 326 kts 232°
2026-04-15 16:37 17.20271 -22.49368 17543 ft 325 kts 232°
2026-04-15 16:37 17.18826 -22.51149 17116 ft 324 kts 231°
2026-04-15 16:38 17.17360 -22.52955 16681 ft 323 kts 231°
2026-04-15 16:38 17.15926 -22.54724 16255 ft 321 kts 231°
2026-04-15 16:38 17.14469 -22.56518 15821 ft 319 kts 231°
2026-04-15 16:38 17.13040 -22.58278 15389 ft 318 kts 231°
2026-04-15 16:39 17.11622 -22.60022 14959 ft 316 kts 231°
2026-04-15 16:39 17.10193 -22.61781 14530 ft 314 kts 231°
2026-04-15 16:39 17.08795 -22.63501 14113 ft 311 kts 231°
2026-04-15 16:39 17.07388 -22.65232 13699 ft 310 kts 230°
2026-04-15 16:40 17.06006 -22.66931 13295 ft 309 kts 230°
2026-04-15 16:40 17.04607 -22.68652 12889 ft 308 kts 230°
2026-04-15 16:40 17.03240 -22.70333 12493 ft 306 kts 230°
2026-04-15 16:40 17.01854 -22.72036 12093 ft 305 kts 230°
2026-04-15 16:41 17.00485 -22.73718 11696 ft 305 kts 230°
2026-04-15 16:41 16.99101 -22.75420 11292 ft 304 kts 230°
2026-04-15 16:41 16.97754 -22.77075 10898 ft 303 kts 230°
2026-04-15 16:41 16.96379 -22.78763 10492 ft 301 kts 230°
2026-04-15 16:42 16.95036 -22.80411 10172 ft 296 kts 230°
2026-04-15 16:42 16.93735 -22.82008 10062 ft 283 kts 230°
2026-04-15 16:42 16.92450 -22.83530 9881 ft 276 kts 223°
2026-04-15 16:42 16.90794 -22.84507 9500 ft 279 kts 195°
2026-04-15 16:43 16.88839 -22.84659 9153 ft 280 kts 180°
2026-04-15 16:43 16.86914 -22.84617 8992 ft 270 kts 180°
2026-04-15 16:43 16.85089 -22.84585 8978 ft 257 kts 180°
2026-04-15 16:43 16.83232 -22.84563 8982 ft 270 kts 180°
2026-04-15 16:44 16.81308 -22.84547 8698 ft 272 kts 180°
2026-04-15 16:44 16.79423 -22.84532 8388 ft 271 kts 180°
2026-04-15 16:44 16.77531 -22.84519 8039 ft 269 kts 180°
2026-04-15 16:44 16.75672 -22.84505 7675 ft 270 kts 180°
2026-04-15 16:45 16.73779 -22.84491 7363 ft 268 kts 179°
2026-04-15 16:45 16.71925 -22.84477 7046 ft 268 kts 179°
2026-04-15 16:45 16.70067 -22.84464 6712 ft 267 kts 179°
2026-04-15 16:45 16.68200 -22.84450 6376 ft 266 kts 179°
2026-04-15 16:46 16.66350 -22.84437 6041 ft 265 kts 179°
2026-04-15 16:46 16.64512 -22.84424 5706 ft 263 kts 179°
2026-04-15 16:46 16.62678 -22.84411 5369 ft 261 kts 179°
2026-04-15 16:46 16.60864 -22.84398 5041 ft 259 kts 179°
2026-04-15 16:47 16.59065 -22.84385 4708 ft 257 kts 179°
2026-04-15 16:47 16.57269 -22.84372 4373 ft 256 kts 178°
2026-04-15 16:47 16.55481 -22.84508 4004 ft 256 kts 198°
2026-04-15 16:47 16.54043 -22.85522 3643 ft 254 kts 236°
2026-04-15 16:48 16.53489 -22.87207 3323 ft 245 kts 274°
2026-04-15 16:48 16.53669 -22.88936 3081 ft 238 kts 279°
2026-04-15 16:48 16.53787 -22.90634 2817 ft 236 kts 274°
2026-04-15 16:48 16.53760 -22.92345 2563 ft 234 kts 270°
2026-04-15 16:49 16.53680 -22.94025 2266 ft 232 kts 278°
2026-04-15 16:49 16.54200 -22.95545 2016 ft 220 kts 314°
2026-04-15 16:49 16.55432 -22.96431 2011 ft 212 kts 349°
2026-04-15 16:49 16.56857 -22.96430 2015 ft 207 kts 16°
2026-04-15 16:50 16.58237 -22.95995 1999 ft 202 kts 21°
2026-04-15 16:50 16.59535 -22.95521 1978 ft 189 kts 21°
2026-04-15 16:50 16.60778 -22.95122 1985 ft 189 kts 14°
2026-04-15 16:50 16.62090 -22.94912 2034 ft 185 kts
2026-04-15 16:51 16.63341 -22.94838 1955 ft 174 kts
2026-04-15 16:51 16.64496 -22.94830 1705 ft 161 kts
2026-04-15 16:51 16.65588 -22.94841 1495 ft 148 kts
2026-04-15 16:51 16.66581 -22.94851 1300 ft 135 kts
2026-04-15 16:52 16.67481 -22.94858 1117 ft 127 kts
2026-04-15 16:52 16.68362 -22.94863 966 ft 126 kts
2026-04-15 16:52 16.69238 -22.94877 805 ft 126 kts
2026-04-15 16:52 16.70116 -22.94881 633 ft 125 kts
2026-04-15 16:53 16.70998 -22.94888 480 ft 125 kts
2026-04-15 16:53 16.71877 -22.94890 306 ft 124 kts
2026-04-15 16:53 16.72741 -22.94892 188 ft 120 kts
2026-04-15 16:53 16.73421 -22.94891 192 ft 72 kts 359°
2026-04-15 16:54 16.73767 -22.94895 190 ft 37 kts
2026-04-15 16:54 16.74018 -22.94898 186 ft 33 kts 360°
2026-04-15 16:54 16.74185 -22.94896 184 ft 14 kts 17°
2026-04-15 16:54 16.74254 -22.94821 183 ft 14 kts 59°
2026-04-15 16:55 16.74298 -22.94726 183 ft 14 kts 97°
2026-04-15 16:55 16.74216 -22.94696 183 ft 13 kts 179°
2026-04-15 16:55 16.74122 -22.94697 184 ft 13 kts 180°
2026-04-15 16:55 16.74026 -22.94697 185 ft 13 kts 180°
2026-04-15 16:56 16.73931 -22.94697 186 ft 13 kts 180°
2026-04-15 16:56 16.73835 -22.94696 186 ft 13 kts 179°
2026-04-15 16:56 16.73740 -22.94696 187 ft 13 kts 180°
2026-04-15 16:56 16.73643 -22.94691 185 ft 10 kts 158°
2026-04-15 16:57 16.73602 -22.94617 182 ft 13 kts 126°
2026-04-15 16:57 16.73517 -22.94596 182 ft 9 kts 178°
2026-04-15 16:57 16.73491 -22.94565 183 ft 6 kts 80°
2026-04-15 16:57 16.73495 -22.94516 183 ft 6 kts 89°
2026-04-15 16:58 16.73495 -22.94492 183 ft 0 kts 90°